TimeMST,TemperatureF,Dew PointF,Humidity,Sea Level PressureIn,VisibilityMPH,Wind Direction,Wind SpeedMPH,Gust SpeedMPH,PrecipitationIn,Events,Conditions,WindDirDegrees,DateUTC
12:53 AM,30.9,23.0,72,29.81,10.0,Calm,Calm,-,N/A,,Clear,0,2013-02-06 07:53:00
1:53 AM,27.0,21.9,81,29.83,10.0,South,4.6,-,N/A,,Clear,190,2013-02-06 08:53:00
2:53 AM,32.0,23.0,69,29.80,10.0,Calm,Calm,-,N/A,,Clear,0,2013-02-06 09:53:00
3:53 AM,28.0,23.0,81,29.81,10.0,Calm,Calm,-,N/A,,Clear,0,2013-02-06 10:53:00
5:53 AM,30.9,24.1,76,29.84,10.0,SW,3.5,-,N/A,,Clear,220,2013-02-06 12:53:00
6:53 AM,30.9,25.0,79,29.85,10.0,SW,6.9,-,N/A,,Clear,230,2013-02-06 13:53:00
7:53 AM,32.0,26.1,79,29.86,10.0,SW,8.1,-,N/A,,Clear,230,2013-02-06 14:53:00
8:53 AM,34.0,28.0,79,29.86,10.0,Calm,Calm,-,N/A,,Clear,0,2013-02-06 15:53:00
9:53 AM,39.9,26.1,58,29.87,10.0,WSW,5.8,-,N/A,,Clear,250,2013-02-06 16:53:00
11:53 AM,46.9,28.0,48,29.88,10.0,NNE,9.2,-,N/A,,Clear,20,2013-02-06 18:53:00
12:53 PM,46.0,28.0,50,29.89,10.0,ENE,6.9,-,N/A,,Clear,60,2013-02-06 19:53:00
1:53 PM,46.0,28.9,51,29.91,10.0,NE,6.9,-,N/A,,Clear,50,2013-02-06 20:53:00
2:53 PM,46.0,30.0,54,29.93,10.0,ENE,4.6,-,N/A,,Clear,70,2013-02-06 21:53:00
3:53 PM,45.0,30.0,56,29.96,10.0,North,4.6,-,N/A,,Clear,360,2013-02-06 22:53:00
4:53 PM,44.1,28.9,55,29.99,10.0,North,3.5,-,N/A,,Mostly Cloudy,360,2013-02-06 23:53:00
5:53 PM,41.0,28.9,62,30.03,10.0,North,3.5,-,N/A,,Overcast,360,2013-02-07 00:53:00
6:53 PM,39.0,32.0,76,30.07,10.0,NNE,9.2,-,N/A,,Overcast,20,2013-02-07 01:53:00
7:53 PM,34.0,30.0,85,30.09,10.0,Calm,Calm,-,N/A,,Partly Cloudy,0,2013-02-07 02:53:00
8:53 PM,33.1,30.9,92,30.10,10.0,SSE,4.6,-,N/A,,Overcast,160,2013-02-07 03:53:00
9:53 PM,32.0,30.0,92,30.11,10.0,West,5.8,-,N/A,,Partly Cloudy,260,2013-02-07 04:53:00
10:53 PM,30.0,28.0,92,30.11,10.0,WSW,8.1,-,N/A,,Clear,240,2013-02-07 05:53:00
11:53 PM,28.9,27.0,92,30.13,10.0,WSW,9.2,-,N/A,,Clear,250,2013-02-07 06:53:00